Time,TemperatureF,DewpointF,PressureIn,WindDirection,WindDirectionDegrees,WindSpeedMPH,WindSpeedGustMPH,Humidity,HourlyPrecipIn,Conditions,Clouds,dailyrainin,SolarRadiationWatts/m^2,SoftwareType,DateUTC
2013-04-21 00:01:00,54.0,24.0,-100.00,NW,321,6.0,15.0,31,0.00,,,0.00,182.000000,,2013-04-21 00:01:00,
2013-04-21 00:12:00,54.0,24.0,-100.00,NW,321,6.0,15.0,31,0.00,,,0.00,182.000000,,2013-04-21 00:12:00,
2013-04-21 01:32:00,49.0,23.0,-100.00,NW,322,7.0,15.0,35,-99.99,,,0.00,0.000000,,2013-04-21 01:32:00,
2013-04-21 01:42:00,49.0,23.0,-100.00,NW,322,7.0,15.0,35,-99.99,,,0.00,0.000000,,2013-04-21 01:42:00,
2013-04-21 01:52:00,49.0,23.0,-100.00,NW,322,7.0,15.0,35,-99.99,,,0.00,0.000000,,2013-04-21 01:52:00,
2013-04-21 02:02:00,49.0,23.0,-100.00,NW,322,7.0,15.0,35,-99.99,,,0.00,0.000000,,2013-04-21 02:02:00,
2013-04-21 02:11:00,49.0,23.0,-100.00,NW,322,7.0,15.0,35,-99.99,,,0.00,0.000000,,2013-04-21 02:11:00,
2013-04-21 02:32:00,46.0,22.0,-100.00,NNW,338,9.0,14.0,39,0.00,,,0.00,0.000000,,2013-04-21 02:32:00,
2013-04-21 02:42:00,46.0,22.0,-100.00,NNW,338,9.0,14.0,39,0.00,,,0.00,0.000000,,2013-04-21 02:42:00,
2013-04-21 02:52:00,46.0,22.0,-100.00,NNW,338,9.0,14.0,39,0.00,,,0.00,0.000000,,2013-04-21 02:52:00,
2013-04-21 03:02:00,46.0,22.0,-100.00,NNW,338,9.0,14.0,39,0.00,,,0.00,0.000000,,2013-04-21 03:02:00,
2013-04-21 03:11:00,46.0,22.0,-100.00,NNW,338,9.0,14.0,39,0.00,,,0.00,0.000000,,2013-04-21 03:11:00,
2013-04-21 03:33:00,45.0,23.0,-100.00,NNW,327,6.0,13.0,42,0.00,,,0.00,0.000000,,2013-04-21 03:33:00,
2013-04-21 03:42:00,45.0,23.0,-100.00,NNW,327,6.0,13.0,42,0.00,,,0.00,0.000000,,2013-04-21 03:42:00,
2013-04-21 03:53:00,45.0,23.0,-100.00,NNW,327,6.0,13.0,42,0.00,,,0.00,0.000000,,2013-04-21 03:53:00,
2013-04-21 04:03:00,45.0,23.0,-100.00,NNW,327,6.0,13.0,42,0.00,,,0.00,0.000000,,2013-04-21 04:03:00,
2013-04-21 04:12:00,45.0,23.0,-100.00,NNW,327,6.0,13.0,42,0.00,,,0.00,0.000000,,2013-04-21 04:12:00,
2013-04-21 04:43:00,43.0,23.0,-100.00,NW,324,5.0,11.0,45,0.00,,,0.00,0.000000,,2013-04-21 04:43:00,
2013-04-21 04:53:00,43.0,23.0,-100.00,NW,324,5.0,11.0,45,0.00,,,0.00,0.000000,,2013-04-21 04:53:00,
2013-04-21 05:02:00,43.0,23.0,-100.00,NW,324,5.0,11.0,45,0.00,,,0.00,0.000000,,2013-04-21 05:02:00,
2013-04-21 05:12:00,43.0,23.0,-100.00,NW,324,5.0,11.0,45,0.00,,,0.00,0.000000,,2013-04-21 05:12:00,
2013-04-21 05:32:00,42.0,23.0,-100.00,NNW,327,4.0,13.0,46,0.00,,,0.00,0.000000,,2013-04-21 05:32:00,
2013-04-21 05:43:00,42.0,23.0,-100.00,NNW,327,4.0,13.0,46,0.00,,,0.00,0.000000,,2013-04-21 05:43:00,
2013-04-21 05:52:00,42.0,23.0,-100.00,NNW,327,4.0,13.0,46,0.00,,,0.00,0.000000,,2013-04-21 05:52:00,
2013-04-21 06:01:00,42.0,23.0,-100.00,NNW,327,4.0,13.0,46,0.00,,,0.00,0.000000,,2013-04-21 06:01:00,
2013-04-21 06:12:00,42.0,23.0,-100.00,NNW,327,4.0,13.0,46,0.00,,,0.00,0.000000,,2013-04-21 06:12:00,
2013-04-21 06:42:00,40.0,23.0,-100.00,NW,322,5.0,9.0,51,0.00,,,0.00,0.000000,,2013-04-21 06:42:00,
2013-04-21 06:52:00,40.0,23.0,-100.00,NW,322,5.0,9.0,51,0.00,,,0.00,0.000000,,2013-04-21 06:52:00,
2013-04-21 07:02:00,40.0,23.0,-100.00,NW,322,5.0,9.0,51,0.00,,,0.00,0.000000,,2013-04-21 07:02:00,
2013-04-21 07:12:00,40.0,23.0,-100.00,NW,322,5.0,9.0,51,0.00,,,0.00,0.000000,,2013-04-21 07:12:00,
2013-04-21 07:32:00,39.0,23.0,-100.00,NNW,334,6.0,15.0,52,0.00,,,0.00,0.000000,,2013-04-21 07:32:00,
2013-04-21 07:42:00,39.0,23.0,-100.00,NNW,334,6.0,15.0,52,0.00,,,0.00,0.000000,,2013-04-21 07:42:00,
2013-04-21 07:52:00,39.0,23.0,-100.00,NNW,334,6.0,15.0,52,0.00,,,0.00,0.000000,,2013-04-21 07:52:00,
2013-04-21 08:02:00,39.0,23.0,-100.00,NNW,334,6.0,15.0,52,0.00,,,0.00,0.000000,,2013-04-21 08:02:00,
2013-04-21 08:12:00,39.0,23.0,-100.00,NNW,334,6.0,15.0,52,0.00,,,0.00,0.000000,,2013-04-21 08:12:00,
2013-04-21 08:42:00,37.0,23.0,-100.00,North,349,4.0,10.0,57,0.00,,,0.00,0.000000,,2013-04-21 08:42:00,
2013-04-21 08:52:00,37.0,23.0,-100.00,North,349,4.0,10.0,57,0.00,,,0.00,0.000000,,2013-04-21 08:52:00,
2013-04-21 09:02:00,37.0,23.0,-100.00,North,349,4.0,10.0,57,0.00,,,0.00,0.000000,,2013-04-21 09:02:00,
2013-04-21 09:12:00,37.0,23.0,-100.00,North,349,4.0,10.0,57,0.00,,,0.00,0.000000,,2013-04-21 09:12:00,
2013-04-21 09:33:00,35.0,23.0,-100.00,North,350,4.0,9.0,60,0.00,,,0.00,0.000000,,2013-04-21 09:33:00,
2013-04-21 09:43:00,35.0,23.0,-100.00,North,350,4.0,9.0,60,0.00,,,0.00,0.000000,,2013-04-21 09:43:00,
2013-04-21 09:53:00,35.0,23.0,-100.00,North,350,4.0,9.0,60,0.00,,,0.00,0.000000,,2013-04-21 09:53:00,
2013-04-21 10:03:00,35.0,23.0,-100.00,North,350,4.0,9.0,60,0.00,,,0.00,0.000000,,2013-04-21 10:03:00,
2013-04-21 10:12:00,35.0,23.0,-100.00,North,350,4.0,9.0,60,0.00,,,0.00,0.000000,,2013-04-21 10:12:00,
2013-04-21 10:33:00,35.0,23.0,-100.00,NNW,333,6.0,9.0,62,0.00,,,0.00,0.000000,,2013-04-21 10:33:00,
2013-04-21 10:42:00,35.0,23.0,-100.00,NNW,333,6.0,9.0,62,0.00,,,0.00,0.000000,,2013-04-21 10:42:00,
2013-04-21 10:52:00,35.0,23.0,-100.00,NNW,333,6.0,9.0,62,0.00,,,0.00,0.000000,,2013-04-21 10:52:00,
2013-04-21 11:03:00,35.0,23.0,-100.00,NNW,333,6.0,9.0,62,0.00,,,0.00,0.000000,,2013-04-21 11:03:00,
2013-04-21 11:12:00,35.0,23.0,-100.00,NNW,333,6.0,9.0,62,0.00,,,0.00,0.000000,,2013-04-21 11:12:00,
2013-04-21 11:42:00,36.0,23.0,-100.00,NNW,343,5.0,9.0,58,0.00,,,0.00,27.000000,,2013-04-21 11:42:00,
2013-04-21 11:52:00,36.0,23.0,-100.00,NNW,343,5.0,9.0,58,0.00,,,0.00,27.000000,,2013-04-21 11:52:00,
2013-04-21 12:03:00,36.0,23.0,-100.00,NNW,343,5.0,9.0,58,0.00,,,0.00,27.000000,,2013-04-21 12:03:00,
2013-04-21 12:12:00,36.0,23.0,-100.00,NNW,343,5.0,9.0,58,0.00,,,0.00,27.000000,,2013-04-21 12:12:00,
2013-04-21 12:32:00,39.0,22.0,-100.00,NNW,343,6.0,12.0,50,0.00,,,0.00,132.000000,,2013-04-21 12:32:00,
2013-04-21 12:42:00,39.0,22.0,-100.00,NNW,343,6.0,12.0,50,0.00,,,0.00,132.000000,,2013-04-21 12:42:00,
2013-04-21 12:52:00,39.0,22.0,-100.00,NNW,343,6.0,12.0,50,0.00,,,0.00,132.000000,,2013-04-21 12:52:00,
2013-04-21 13:01:00,39.0,22.0,-100.00,NNW,343,6.0,12.0,50,0.00,,,0.00,132.000000,,2013-04-21 13:01:00,
2013-04-21 13:12:00,39.0,22.0,-100.00,NNW,343,6.0,12.0,50,0.00,,,0.00,132.000000,,2013-04-21 13:12:00,
2013-04-21 13:32:00,42.0,21.0,-100.00,NNE,29,7.0,12.0,43,0.00,,,0.00,299.000000,,2013-04-21 13:32:00,
2013-04-21 13:42:00,42.0,21.0,-100.00,NNE,29,7.0,12.0,43,0.00,,,0.00,299.000000,,2013-04-21 13:42:00,
2013-04-21 13:52:00,42.0,21.0,-100.00,NNE,29,7.0,12.0,43,0.00,,,0.00,299.000000,,2013-04-21 13:52:00,
2013-04-21 14:02:00,42.0,21.0,-100.00,NNE,29,7.0,12.0,43,0.00,,,0.00,299.000000,,2013-04-21 14:02:00,
2013-04-21 14:11:00,42.0,21.0,-100.00,NNE,29,7.0,12.0,43,0.00,,,0.00,299.000000,,2013-04-21 14:11:00,
2013-04-21 14:32:00,44.0,21.0,-100.00,NNE,24,6.0,16.0,39,0.00,,,0.00,559.000000,,2013-04-21 14:32:00,
2013-04-21 14:42:00,44.0,21.0,-100.00,NNE,24,6.0,16.0,39,0.00,,,0.00,559.000000,,2013-04-21 14:42:00,
2013-04-21 14:52:00,44.0,21.0,-100.00,NNE,24,6.0,16.0,39,0.00,,,0.00,559.000000,,2013-04-21 14:52:00,
2013-04-21 15:02:00,44.0,21.0,-100.00,NNE,24,6.0,16.0,39,0.00,,,0.00,559.000000,,2013-04-21 15:02:00,
2013-04-21 15:11:00,44.0,21.0,-100.00,NNE,24,6.0,16.0,39,0.00,,,0.00,559.000000,,2013-04-21 15:11:00,
2013-04-21 15:13:00,46.0,22.0,-100.00,NNE,20,5.0,12.0,38,0.00,,,0.00,704.000000,,2013-04-21 15:13:00,
2013-04-21 15:33:00,46.0,22.0,-100.00,NNE,20,5.0,12.0,38,0.00,,,0.00,704.000000,,2013-04-21 15:33:00,
2013-04-21 15:43:00,46.0,22.0,-100.00,NNE,20,5.0,12.0,38,0.00,,,0.00,704.000000,,2013-04-21 15:43:00,
2013-04-21 15:53:00,46.0,22.0,-100.00,NNE,20,5.0,12.0,38,0.00,,,0.00,704.000000,,2013-04-21 15:53:00,
2013-04-21 16:03:00,46.0,22.0,-100.00,NNE,20,5.0,12.0,38,0.00,,,0.00,704.000000,,2013-04-21 16:03:00,
2013-04-21 16:42:00,48.0,23.0,-100.00,ENE,75,6.0,12.0,37,0.00,,,0.00,825.000000,,2013-04-21 16:42:00,
2013-04-21 16:53:00,48.0,23.0,-100.00,ENE,75,6.0,12.0,37,0.00,,,0.00,825.000000,,2013-04-21 16:53:00,
2013-04-21 17:02:00,48.0,23.0,-100.00,ENE,75,6.0,12.0,37,0.00,,,0.00,825.000000,,2013-04-21 17:02:00,
2013-04-21 17:12:00,48.0,23.0,-100.00,ENE,75,6.0,12.0,37,0.00,,,0.00,825.000000,,2013-04-21 17:12:00,
2013-04-21 17:32:00,50.0,23.0,-100.00,NNE,25,4.0,12.0,35,0.00,,,0.00,927.000000,,2013-04-21 17:32:00,
2013-04-21 17:42:00,50.0,23.0,-100.00,NNE,25,4.0,12.0,35,0.00,,,0.00,927.000000,,2013-04-21 17:42:00,
2013-04-21 17:52:00,50.0,23.0,-100.00,NNE,25,4.0,12.0,35,0.00,,,0.00,927.000000,,2013-04-21 17:52:00,
2013-04-21 18:02:00,50.0,23.0,-100.00,NNE,25,4.0,12.0,35,0.00,,,0.00,927.000000,,2013-04-21 18:02:00,
2013-04-21 18:11:00,50.0,23.0,-100.00,NNE,25,4.0,12.0,35,0.00,,,0.00,927.000000,,2013-04-21 18:11:00,
2013-04-21 18:33:00,52.0,25.0,-100.00,NNW,340,4.0,13.0,34,0.00,,,0.00,913.000000,,2013-04-21 18:33:00,
2013-04-21 18:42:00,52.0,25.0,-100.00,NNW,340,4.0,13.0,34,0.00,,,0.00,913.000000,,2013-04-21 18:42:00,
2013-04-21 18:52:00,52.0,25.0,-100.00,NNW,340,4.0,13.0,34,0.00,,,0.00,913.000000,,2013-04-21 18:52:00,
2013-04-21 19:02:00,52.0,25.0,-100.00,NNW,340,4.0,13.0,34,0.00,,,0.00,913.000000,,2013-04-21 19:02:00,
2013-04-21 19:12:00,52.0,25.0,-100.00,NNW,340,4.0,13.0,34,0.00,,,0.00,913.000000,,2013-04-21 19:12:00,
2013-04-21 19:32:00,53.0,22.0,-100.00,NE,36,4.0,11.0,30,0.00,,,0.00,820.000000,,2013-04-21 19:32:00,
2013-04-21 19:43:00,53.0,22.0,-100.00,NE,36,4.0,11.0,30,0.00,,,0.00,820.000000,,2013-04-21 19:43:00,
2013-04-21 19:52:00,53.0,22.0,-100.00,NE,36,4.0,11.0,30,0.00,,,0.00,820.000000,,2013-04-21 19:52:00,
2013-04-21 20:02:00,53.0,22.0,-100.00,NE,36,4.0,11.0,30,0.00,,,0.00,820.000000,,2013-04-21 20:02:00,
2013-04-21 20:11:00,53.0,22.0,-100.00,NE,36,4.0,11.0,30,0.00,,,0.00,820.000000,,2013-04-21 20:11:00,
2013-04-21 20:42:00,54.0,23.0,-100.00,SE,129,3.0,13.0,30,0.00,,,0.00,757.000000,,2013-04-21 20:42:00,
2013-04-21 20:52:00,54.0,23.0,-100.00,SE,129,3.0,13.0,30,0.00,,,0.00,757.000000,,2013-04-21 20:52:00,
2013-04-21 21:02:00,54.0,23.0,-100.00,SE,129,3.0,13.0,30,0.00,,,0.00,757.000000,,2013-04-21 21:02:00,
2013-04-21 21:12:00,54.0,23.0,-100.00,SE,129,3.0,13.0,30,0.00,,,0.00,757.000000,,2013-04-21 21:12:00,
2013-04-21 21:43:00,53.0,19.0,-100.00,NE,40,6.0,12.0,26,0.00,,,0.00,450.000000,,2013-04-21 21:43:00,
2013-04-21 21:53:00,53.0,19.0,-100.00,NE,40,6.0,12.0,26,0.00,,,0.00,450.000000,,2013-04-21 21:53:00,
2013-04-21 22:03:00,53.0,19.0,-100.00,NE,40,6.0,12.0,26,0.00,,,0.00,450.000000,,2013-04-21 22:03:00,
2013-04-21 22:12:00,53.0,19.0,-100.00,NE,40,6.0,12.0,26,0.00,,,0.00,450.000000,,2013-04-21 22:12:00,
2013-04-21 22:33:00,53.0,23.0,-100.00,NE,42,4.0,8.0,31,0.00,,,0.00,286.000000,,2013-04-21 22:33:00,
2013-04-21 22:43:00,53.0,23.0,-100.00,NE,42,4.0,8.0,31,0.00,,,0.00,286.000000,,2013-04-21 22:43:00,
2013-04-21 22:53:00,53.0,23.0,-100.00,NE,42,4.0,8.0,31,0.00,,,0.00,286.000000,,2013-04-21 22:53:00,
2013-04-21 23:02:00,53.0,23.0,-100.00,NE,42,4.0,8.0,31,0.00,,,0.00,286.000000,,2013-04-21 23:02:00,
2013-04-21 23:12:00,53.0,23.0,-100.00,NE,42,4.0,8.0,31,0.00,,,0.00,286.000000,,2013-04-21 23:12:00,
2013-04-21 23:32:00,51.0,25.0,-100.00,SSE,153,7.0,10.0,36,0.00,,,0.00,147.000000,,2013-04-21 23:32:00,
2013-04-21 23:43:00,51.0,25.0,-100.00,SSE,153,7.0,10.0,36,0.00,,,0.00,147.000000,,2013-04-21 23:43:00,
2013-04-21 23:52:00,51.0,25.0,-100.00,SSE,153,7.0,10.0,36,0.00,,,0.00,147.000000,,2013-04-21 23:52:00,